Regional Weather Roundup
Issued by NWS

Home | Current Version | Previous Version | Graphics & Text | Print | Product List | Glossary On
Versions: 1 2 3 4 5 6 7 8 9 10 11 12 13 14 15 16 17 18 19 20 21 22 23 24 25 26 27 28 29 30 31 32 33 34 35 36 37 38 39 40 41 42 43 44 45 46 47 48 49 50
000
ASUS43 KIND 201359
RWRIN

WEATHER ROUNDUP FOR INDIANA
NATIONAL WEATHER SERVICE INDIANAPOLIS IN
1000 AM EDT FRI APR 20 2018

NOTE: "FAIR" INDICATES FEW OR NO CLOUDS BELOW 12,000 FEET WITH NO
SIGNIFICANT WEATHER AND/OR OBSTRUCTIONS TO VISIBILITY.

* - STATION DOES NOT REPORT WEATHER SUCH AS PRECIPITATION OR FOG.

+ - STATION NOT QUALITY CONTROLLED BY THE NATIONAL WEATHER SERVICE.
    USE DATA WITH CAUTION...ESPECIALLY DEWPOINT AND RELATIVE
    HUMIDITY OBSERVATIONS.

INZ001>003-010>013-019-020-201500-
NORTHWEST INDIANA

CITY           SKY/WX    TMP DP  RH WIND       PRES   REMARKS
GARY /AIRPORT/ SUNNY     45  28  53 VRB5      30.52R
KNOX *+        FAIR      43  30  61 NE3       30.51R
MONTICELLO +   FAIR      42  27  54 NE6       30.50S
RENSSELAER +   FAIR      45  23  42 E5        30.52R

$$

LMZ046-743>745-201500-
SOUTHERN LAKE MICHIGAN

STATION/POSITION TIME  TEMP    WIND        PRES    WAVE
                       AIR SEA DIR/SP/G            HT
                 (UTC) (F)     (DEG/KT/KT) (MB)    (FT)
BURNS HARBOR     1340   39      10/  3/  3 1033.9R
MICHIGAN CITY    1330   41        CALM       N/A

$$

INZ004-005-014>016-021>024-201500-
NORTH CENTRAL INDIANA

CITY           SKY/WX    TMP DP  RH WIND       PRES   REMARKS
ELKHART        SUNNY     19  19 100 E3        30.49S
GOSHEN         FAIR      43  22  43 VRB6      30.49S
PERU/GRISSOM   FAIR     N/A N/A N/A MISG      30.50R
ROCHESTER +    FAIR      45  28  53 E6        30.51S
SOUTH BEND     FAIR      45  18  34 VRB5      30.51R
WARSAW +       FAIR      41  27  56 E5        30.50S

$$

INZ006>009-017-018-025>027-201500-
NORTHEAST INDIANA

CITY           SKY/WX    TMP DP  RH WIND       PRES   REMARKS
ANGOLA *+      FAIR      43  18  36 CALM      30.48S
FORT WAYNE     FAIR      44  21  40 NE5       30.50S
KENDALLVILLE + FAIR      43  11  28 CALM      30.49R

$$

INZ028-029-035-036-043>045-051>053-201500-
WEST CENTRAL INDIANA

CITY           SKY/WX    TMP DP  RH WIND       PRES   REMARKS
CRAWFORDSVL +  FAIR      42  25  49 NE7       30.51R
GREENCASTLE +  FAIR      45  21  39 NE7       30.51R
LAFAYETTE      FAIR      43  27  53 E7        30.51S
TERRE HAUTE    FAIR      47  24  40 NE9       30.51R

$$

INZ030>032-037>040-046>048-054>057-064-065-201500-
CENTRAL INDIANA

CITY           SKY/WX    TMP DP  RH WIND       PRES   REMARKS
ANDERSON       SUNNY     41  23  48 N6        30.50R
COLUMBUS       SUNNY     43 N/A N/A NE7       30.51R
INDIANAPOLIS   FAIR      45  19  35 E10       30.50R
-EAGLE CREEK   FAIR      47  21  35 VRB5      30.50R
KOKOMO +       FAIR      44  24  45 NE8       30.51R
MT COMFORT *+  FAIR      43  28  56 NE7       30.50R
SHELBYVILLE    FAIR      45  24  43 NE8       30.49R
ZIONSVILLE +   FAIR      41  23  48 NE7       30.50S

$$

INZ033-034-041-042-049-050-058-059-201500-
EAST CENTRAL INDIANA

CITY           SKY/WX    TMP DP  RH WIND       PRES   REMARKS
MUNCIE         FAIR      45  24  43 E7        30.50R
RICHMOND +     FAIR      41  28  60 NE8       30.48S

$$

INZ060-061-067>069-081>083-085>088-201500-
SOUTHWEST INDIANA

CITY           SKY/WX    TMP DP  RH WIND       PRES   REMARKS
EVANSVILLE     FAIR      47  27  45 E7        30.49R
HUNTINGBURG +  FAIR      45  29  53 N9        30.49R

$$

INZ062-063-066-070>080-084-089>092-201500-
SOUTH CENTRAL AND SOUTHEAST INDIANA

CITY           SKY/WX    TMP DP  RH WIND       PRES   REMARKS
BLOOMINGTON    FAIR      45  20  36 NE7       30.49R
FRENCH LICK *+ FAIR      43  21  42 NE9       30.48S
SEYMOUR +      FAIR      45  27  49 N7        30.50R

$$





USA.gov is the U.S. government's official web portal to all federal, state and local government web resources and services.